[[{"header":{"parameterUnit":"m.s-1","parameterCategory":1,"la1":30.2991,"la2":30.254,"lo1":-89.0895,"lo2":-89.0444,"dy":0.0017,"dx":0.0017,"nx":28,"ny":28,"refTime":"2023-10-22T21:00:00:Z","depth":0,"parameterNumber":2,"parameterNumberName":"U-component_of_WINDS"},"data":[0,0,0,0,0,0,0,0,0,0,0,0,0,0,0,0,0,0,0,0,0,0,0,0,0,0,0,0,0,0,0,0,0,0,0,0,0,0,0,0,0,0,0,0,0,0,0,0,0,0,0,0,0,0,0,0,0,0,-5.1794,-5.1796,0,-5.2035,-5.2038,-5.2041,-5.2101,-5.21,-5.2098,-5.2096,-5.2348,-5.2356,-5.2364,0,0,0,0,0,0,0,0,0,0,0,0,0,-5.1392,-5.1399,-5.1793,-5.1796,-5.18,-5.2035,-5.2038,-5.2041,-5.2101,-5.2099,-5.2098,-5.2096,-5.2345,-5.2355,-5.2365,0,0,0,0,0,0,0,0,0,0,0,0,0,-5.1593,-5.1401,-5.1793,-5.1858,-5.1866,-5.2034,-5.2038,-5.2042,-5.2102,-5.2099,-5.2097,-5.2095,-5.2342,-5.2354,-5.2366,-5.2489,0,0,-5.2404,-5.2409,0,0,0,0,0,0,0,0,-5.1581,-5.1608,-5.1845,-5.1854,-5.1863,-5.2036,-5.1989,-5.2192,-5.2102,-5.2012,-5.2096,-5.2094,-5.2246,-5.2266,-5.2317,-5.25,-5.2511,-5.2405,-5.2412,-5.2417,-5.2421,0,0,0,0,0,0,0,-5.1567,-5.1598,-5.1889,-5.1849,-5.186,-5.1877,-5.1903,-5.2028,-5.214,-5.202,-5.2025,-5.2053,-5.2251,-5.2305,-5.2323,-5.2515,-5.2404,-5.2415,-5.2423,-5.2428,-5.2815,-5.2818,0,0,0,0,0,0,-5.1541,-5.1586,-5.1882,-5.1897,-5.1713,-5.1886,-5.1915,-5.1983,-5.2138,-5.216,-5.2054,-5.2054,-5.2285,-5.2309,-5.2332,-5.2487,-5.2417,-5.2429,-5.2436,-5.2812,-5.2816,-5.2819,0,0,0,0,0,0,-5.1533,-5.1567,-5.1872,-5.1743,-5.1783,-5.1896,-5.1971,-5.1989,-5.2043,-5.2164,-5.2185,-5.2088,-5.2284,-5.2315,-5.245,-5.2497,-5.2434,-5.2445,-5.2809,-5.2814,-5.2818,-5.2797,0,0,0,0,0,0,-5.1521,-5.1564,-5.1609,-5.1743,-5.1789,-5.1983,-5.1974,-5.1995,-5.2063,-5.2066,-5.2202,-5.2222,-5.2285,-5.2431,-5.2462,-5.2512,-5.2455,-5.2805,-5.2811,-5.2816,-5.2794,-5.28,-5.2805,0,0,0,0,0,-5.1506,-5.1593,-5.1611,-5.1646,-5.1848,-5.1985,-5.2012,-5.2081,-5.2066,-5.2115,-5.2194,-5.2218,-5.2487,-5.2445,-5.248,-5.2534,-5.2803,-5.2809,-5.2816,-5.2791,-5.2799,-5.2805,0,0,0,0,0,0,-5.1462,-5.1612,-5.1633,-5.1766,-5.1862,-5.1995,-5.2057,-5.2086,-5.2189,-5.2187,-5.2271,-5.2301,-5.2431,-5.2497,-5.2446,-5.2663,-5.2645,-5.2659,-5.2614,-5.2623,-5.2628,-5.2609,-5.2465,0,0,0,0,0,-5.1468,-5.1564,-5.1691,-5.1797,-5.1844,-5.1942,-5.2005,-5.205,-5.2154,-5.2195,-5.2284,-5.2385,-5.2493,-5.2562,-5.2668,-5.2805,-5.2837,-5.2861,-5.2867,-5.2871,-5.2881,-5.2961,-5.2974,-5.2841,-5.2841,-5.2841,0,0,-5.148,-5.1574,-5.163,-5.179,-5.187,-5.1971,-5.1976,-5.2082,-5.2158,-5.2212,-5.2343,-5.2413,-5.2532,-5.2669,-5.2734,-5.2728,-5.2926,-5.2879,-5.2882,-5.289,-5.2969,-5.2982,-5.2993,-5.2846,-5.2845,-5.2844,0,0,-5.1554,-5.1634,-5.1732,-5.1813,-5.1934,-5.2,-5.2024,-5.2154,-5.2201,-5.2336,-5.2379,-5.2473,-5.2656,-5.274,-5.2807,-5.2919,-5.2946,-5.2952,-5.2981,-5.3058,-5.3068,-5.3078,-5.3118,-5.3132,-5.2962,-5.2962,-5.2962,0,-5.1554,-5.1705,-5.1778,-5.1883,-5.1953,-5.2008,-5.2109,-5.2184,-5.2335,-5.2383,-5.2375,-5.2609,-5.2693,-5.2851,-5.2879,-5.2931,-5.2962,-5.2934,-5.3061,-5.3071,-5.3081,-5.3121,-5.3136,-5.2962,-5.2962,-5.2962,-5.2962,0,-5.17,-5.1805,-5.187,-5.2013,-5.2092,-5.2194,-5.2285,-5.2357,-5.2397,-5.2465,-5.2603,-5.2707,-5.2836,-5.2878,-5.2918,-5.3044,-5.3036,-5.3044,-5.3027,-5.3092,-5.3131,-5.3147,-5.2962,-5.2962,-5.2962,-5.2962,0,0,-5.1747,-5.1933,-5.1956,-5.2023,-5.2164,-5.2247,-5.2355,-5.2481,-5.2541,-5.2645,-5.2737,-5.2894,-5.2903,-5.2979,-5.303,-5.3098,-5.3182,-5.3098,-5.3102,-5.3109,-5.3329,-5.3321,-5.3337,-5.3203,-5.3206,-5.3209,-5.3319,0,-5.1838,-5.2027,-5.2099,-5.2256,-5.2355,-5.2412,-5.2506,-5.2604,-5.2672,-5.2769,-5.2845,-5.2954,-5.2957,-5.3004,-5.3074,-5.3157,-5.3227,-5.315,-5.3291,-5.3295,-5.3256,-5.3357,-5.3348,-5.3447,-5.3334,-5.3337,-5.3339,0,-5.1966,-5.2072,-5.2237,-5.237,-5.2414,-5.2497,-5.262,-5.2711,-5.2826,-5.2871,-5.2958,-5.3006,-5.3124,-5.3103,-5.3267,-5.3213,-5.3277,-5.3327,-5.3333,-5.3346,-5.3318,-5.3372,-5.348,-5.3494,-5.3363,-5.3361,-5.336,0,-5.1983,-5.2167,-5.2291,-5.2347,-5.2504,-5.2561,-5.263,-5.2742,-5.2815,-5.2924,-5.2973,-5.3095,-5.3161,-5.3256,-5.3337,-5.3314,-5.3495,-5.348,-5.3537,-5.3535,-5.3569,-5.3565,-5.3687,-5.3613,-5.3613,-5.3613,-5.3612,0,-5.2075,-5.2174,-5.2301,-5.2376,-5.2491,-5.2576,-5.2688,-5.2761,-5.2861,-5.2955,-5.3013,-5.31,-5.3203,-5.3304,-5.3369,-5.3497,-5.3527,-5.3568,-5.3583,-5.3561,-5.3556,-5.3601,-5.3596,-5.3617,-5.3616,-5.3615,-5.3614,0,-5.2111,-5.22,-5.2338,-5.2477,-5.2515,-5.2593,-5.2714,-5.2792,-5.2864,-5.2982,-5.3015,-5.3129,-5.3252,-5.3344,-5.3503,-5.3547,-5.3682,-5.37,-5.3642,-5.365,-5.3702,-5.3695,-5.3854,-5.388,-5.379,-5.3791,-5.3792,0,-5.2162,-5.224,-5.2388,-5.2454,-5.2522,-5.2628,-5.2703,-5.2792,-5.2868,-5.3008,-5.3069,-5.3196,-5.3301,-5.3496,-5.3595,-5.3718,-5.3738,-5.3786,-5.3756,-5.3732,-5.3738,-5.3731,-5.374,-5.3788,-5.3788,-5.3789,-5.3789,0,-5.2243,-5.2285,-5.2389,-5.2511,-5.2598,-5.2698,-5.28,-5.2852,-5.2959,-5.3043,-5.3168,-5.3251,-5.3415,-5.354,-5.3674,-5.3748,-5.3788,-5.3799,-5.3818,-5.3795,-5.3758,-5.3778,-5.3652,-5.3793,-5.3793,-5.3793,-5.3792,-5.3792,-5.2288,-5.2361,-5.2477,-5.2593,-5.2679,-5.2774,-5.2854,-5.2938,-5.3044,-5.3183,-5.3231,-5.3362,-5.348,-5.3664,-5.374,-5.3845,-5.3845,-5.3873,-5.388,-5.3885,-5.3883,-5.3744,-5.3871,-5.3871,-5.3871,-5.3871,-5.3871,0,-5.2371,-5.245,-5.2556,-5.2697,-5.2789,-5.2819,-5.2935,-5.301,-5.3124,-5.323,-5.3334,-5.3481,-5.3605,-5.3716,-5.3845,-5.3909,-5.393,-5.394,-5.3935,-5.3952,-5.3876,-5.3846,-5.392,-5.392,-5.392,-5.392,-5.392,-5.392,-5.2425,-5.2551,-5.2607,-5.2777,-5.2857,-5.2984,-5.3048,-5.3137,-5.3222,-5.3383,-5.3486,-5.3558,-5.3668,-5.3807,-5.3923,-5.3953,-5.3997,-5.4002,-5.4036,-5.3963,-5.3957,-5.3951,-5.3922,-5.4012,-5.4012,-5.4103,-5.4104,-5.4104]},{"header":{"parameterUnit":"m.s-1","parameterCategory":1,"la1":30.2991,"la2":30.254,"lo1":-89.0895,"lo2":-89.0444,"dy":0.0017,"dx":0.0017,"nx":28,"ny":28,"refTime":"2023-10-22T21:00:00:Z","depth":0,"parameterNumber":3,"parameterNumberName":"V-component_of_WINDS"},"data":[0,0,0,0,0,0,0,0,0,0,0,0,0,0,0,0,0,0,0,0,0,0,0,0,0,0,0,0,0,0,0,0,0,0,0,0,0,0,0,0,0,0,0,0,0,0,0,0,0,0,0,0,0,0,0,0,0,0,1.7226,1.7226,0,1.721,1.721,1.721,1.7201,1.7201,1.7201,1.7201,1.7187,1.7187,1.7186,0,0,0,0,0,0,0,0,0,0,0,0,0,1.7253,1.7253,1.7226,1.7226,1.7226,1.721,1.721,1.721,1.7201,1.7201,1.7201,1.7201,1.7187,1.7187,1.7186,0,0,0,0,0,0,0,0,0,0,0,0,0,1.724,1.7253,1.7226,1.7219,1.7219,1.721,1.721,1.7209,1.7201,1.7201,1.7201,1.7201,1.7187,1.7187,1.7186,1.7183,0,0,1.7184,1.7184,0,0,0,0,0,0,0,0,1.7241,1.7239,1.7221,1.722,1.7219,1.7207,1.7214,1.7201,1.7201,1.7208,1.7201,1.7201,1.7194,1.7193,1.719,1.7183,1.7182,1.7184,1.7184,1.7184,1.7184,0,0,0,0,0,0,0,1.7242,1.724,1.722,1.722,1.7219,1.7219,1.7217,1.7212,1.7201,1.7207,1.7207,1.7205,1.7193,1.719,1.719,1.7182,1.7184,1.7184,1.7184,1.7183,1.7174,1.7174,0,0,0,0,0,0,1.7243,1.724,1.722,1.7219,1.723,1.7218,1.7216,1.7211,1.7201,1.72,1.7205,1.7204,1.7191,1.719,1.7189,1.7186,1.7184,1.7183,1.7183,1.7174,1.7174,1.7174,0,0,0,0,0,0,1.7244,1.7241,1.7221,1.723,1.7227,1.7218,1.7212,1.7211,1.7208,1.7199,1.7198,1.7203,1.7191,1.719,1.7185,1.7186,1.7183,1.7183,1.7174,1.7174,1.7174,1.7181,0,0,0,0,0,0,1.7245,1.7242,1.7239,1.723,1.7226,1.7216,1.7212,1.7211,1.7207,1.7206,1.7198,1.7196,1.7191,1.7186,1.7185,1.7185,1.7182,1.7174,1.7174,1.7174,1.718,1.7181,1.7181,0,0,0,0,0,1.7246,1.7242,1.7239,1.7237,1.7223,1.7216,1.7214,1.7208,1.7207,1.7205,1.72,1.7196,1.7186,1.7186,1.7184,1.7184,1.7174,1.7174,1.7174,1.718,1.7181,1.7181,0,0,0,0,0,0,1.7252,1.724,1.7237,1.723,1.7224,1.7215,1.7212,1.7209,1.7203,1.7203,1.7196,1.7195,1.7191,1.7187,1.7187,1.7182,1.718,1.718,1.7185,1.7185,1.7186,1.7187,1.7182,0,0,0,0,0,1.7253,1.7247,1.7237,1.7232,1.7229,1.7221,1.7218,1.7214,1.7208,1.7205,1.72,1.7195,1.7191,1.7188,1.7183,1.718,1.7179,1.718,1.718,1.7181,1.7181,1.7181,1.7181,1.7175,1.7175,1.7175,0,0,1.7254,1.7247,1.7243,1.7233,1.7228,1.7223,1.7219,1.7214,1.7211,1.7205,1.72,1.7196,1.719,1.7187,1.7185,1.7184,1.7183,1.7181,1.7181,1.7181,1.7181,1.7182,1.7182,1.7175,1.7175,1.7175,0,0,1.7254,1.7247,1.7243,1.7238,1.723,1.7226,1.7225,1.7216,1.7213,1.7208,1.7204,1.7201,1.7194,1.719,1.7187,1.7189,1.7186,1.7188,1.7191,1.7191,1.7191,1.7191,1.7193,1.7194,1.7188,1.7188,1.7188,0,1.7256,1.7248,1.7241,1.7236,1.7233,1.7227,1.7224,1.722,1.7211,1.721,1.7208,1.72,1.7195,1.7192,1.7192,1.719,1.719,1.7188,1.7191,1.7192,1.7192,1.7194,1.7194,1.7188,1.7188,1.7188,1.7188,0,1.7252,1.7247,1.7244,1.7236,1.7233,1.7229,1.7223,1.722,1.7217,1.7213,1.721,1.7204,1.72,1.7199,1.7195,1.7195,1.7195,1.7192,1.719,1.7193,1.7194,1.7195,1.7189,1.7188,1.7188,1.7188,0,0,1.7253,1.7243,1.7243,1.724,1.7232,1.7228,1.7226,1.722,1.7219,1.7214,1.7212,1.7207,1.7206,1.7203,1.7199,1.7199,1.7202,1.7197,1.7197,1.7199,1.7204,1.7206,1.7207,1.7201,1.7201,1.7201,1.7205,0,1.7253,1.7245,1.724,1.7236,1.7232,1.7228,1.7225,1.7221,1.7218,1.7216,1.7213,1.7209,1.7207,1.7205,1.7205,1.7202,1.7203,1.7202,1.72,1.72,1.7202,1.7207,1.7209,1.7213,1.7205,1.7205,1.7205,0,1.725,1.7245,1.724,1.7235,1.7233,1.7231,1.7227,1.7224,1.7221,1.7219,1.7216,1.7213,1.7212,1.721,1.7208,1.7207,1.7207,1.7206,1.7206,1.7205,1.7203,1.7207,1.7213,1.7214,1.7206,1.7206,1.7206,0,1.7252,1.7245,1.7242,1.7239,1.7233,1.7232,1.7229,1.7225,1.7224,1.7221,1.722,1.7217,1.7216,1.7215,1.7212,1.721,1.7211,1.7209,1.7211,1.7211,1.7211,1.7211,1.7217,1.721,1.721,1.721,1.721,0,1.7252,1.7249,1.7243,1.7241,1.7239,1.7234,1.7232,1.723,1.7227,1.7226,1.7222,1.7221,1.7217,1.7216,1.7214,1.7214,1.7214,1.7213,1.7212,1.7213,1.7213,1.7213,1.7213,1.721,1.721,1.721,1.721,0,1.7254,1.7249,1.7245,1.724,1.7239,1.7238,1.7234,1.7233,1.723,1.7229,1.7228,1.7225,1.7224,1.7221,1.7219,1.7218,1.7219,1.7218,1.722,1.722,1.7222,1.7222,1.7228,1.723,1.7221,1.7221,1.7221,0,1.7253,1.7251,1.7246,1.7245,1.7243,1.724,1.7239,1.7235,1.7234,1.7231,1.723,1.7229,1.7228,1.7227,1.7225,1.7224,1.7223,1.7225,1.7223,1.7225,1.7224,1.7224,1.7225,1.7226,1.7226,1.7226,1.7226,0,1.7253,1.7252,1.7249,1.7247,1.7245,1.7243,1.724,1.724,1.7236,1.7235,1.7234,1.7233,1.7232,1.7231,1.7231,1.723,1.7228,1.7227,1.7228,1.7229,1.723,1.723,1.7222,1.7227,1.7227,1.7227,1.7227,1.7227,1.7255,1.7253,1.725,1.7248,1.7246,1.7245,1.7244,1.7242,1.7241,1.7239,1.7238,1.7237,1.7236,1.7235,1.7235,1.7235,1.7234,1.7234,1.7235,1.7235,1.7236,1.723,1.7235,1.7235,1.7235,1.7235,1.7235,0,1.7255,1.7254,1.7252,1.7249,1.7248,1.7247,1.7245,1.7244,1.7244,1.7243,1.7242,1.7242,1.7242,1.7241,1.7241,1.7242,1.7241,1.7242,1.7242,1.7242,1.7236,1.7236,1.7243,1.7243,1.7243,1.7243,1.7243,1.7243,1.7256,1.7254,1.7253,1.7251,1.725,1.7249,1.7248,1.7248,1.7247,1.7247,1.7247,1.7246,1.7246,1.7247,1.7247,1.7247,1.7248,1.7249,1.7249,1.7243,1.7242,1.7242,1.7242,1.7249,1.7249,1.7255,1.7255,1.7255]}]]